Hourly Weather Sueca

Today, 20 January, Wednesday

Time Temperature Precipitation Wind Pressure Humidity
00:00 +9°C° 0 mm 2 mps 764 mmHg 65%
01:00 +9°C° 0 mm 2 mps 764 mmHg 65%
02:00 +8°C° 0 mm 2 mps 763 mmHg 65%
03:00 +8°C° 0 mm 2 mps 762 mmHg 65%
04:00 +8°C° 0 mm 2 mps 762 mmHg 65%
05:00 +8°C° 0 mm 2 mps 762 mmHg 64%
06:00 +8°C° 0 mm 2 mps 761 mmHg 63%
07:00 +9°C° 0 mm 2 mps 761 mmHg 63%
08:00 +10°C° 0 mm 2 mps 761 mmHg 62%
09:00 +12°C° 0 mm 2 mps 761 mmHg 61%
10:00 +13°C° 0 mm 2 mps 761 mmHg 56%
11:00 +13°C° 0 mm 3 mps 761 mmHg 51%
12:00 +15°C° 0 mm 4 mps 761 mmHg 46%
13:00 +16°C° 0 mm 3 mps 760 mmHg 48%
14:00 +16°C° 0 mm 3 mps 759 mmHg 50%
15:00 +16°C° 0 mm 3 mps 758 mmHg 52%
16:00 +14°C° 0 mm 3 mps 758 mmHg 54%
17:00 +12°C° 0 mm 3 mps 758 mmHg 57%
18:00 +11°C° 0 mm 3 mps 758 mmHg 59%
19:00 +11°C° 0 mm 3 mps 758 mmHg 60%
20:00 +12°C° 0 mm 2 mps 758 mmHg 61%
21:00 +12°C° 0 mm 2 mps 758 mmHg 62%
22:00 +11°C° 0 mm 3 mps 759 mmHg 64%
23:00 +11°C° 0 mm 3 mps 759 mmHg 67%

Tomorrow, 21 January, Thursday

Time Temperature Precipitation Wind Pressure Humidity
00:00 +11°C° 0 mm 4 mps 759 mmHg 69%
01:00 +10°C° 0 mm 5 mps 759 mmHg 72%
02:00 +10°C° 0 mm 5 mps 759 mmHg 75%
03:00 +9°C° 0 mm 6 mps 758 mmHg 78%
04:00 +10°C° 0 mm 6 mps 759 mmHg 77%
05:00 +10°C° 0 mm 6 mps 759 mmHg 76%
06:00 +11°C° 0 mm 6 mps 760 mmHg 75%
07:00 +11°C° 0 mm 6 mps 760 mmHg 74%
08:00 +12°C° 0 mm 7 mps 760 mmHg 73%
09:00 +12°C° 0 mm 7 mps 761 mmHg 72%
10:00 +15°C° 0 mm 7 mps 761 mmHg 66%
11:00 +16°C° 0 mm 8 mps 761 mmHg 60%
12:00 +17°C° 0 mm 9 mps 761 mmHg 54%
13:00 +17°C° 0 mm 9 mps 760 mmHg 55%
14:00 +17°C° 0 mm 9 mps 760 mmHg 56%
15:00 +16°C° 0 mm 9 mps 760 mmHg 57%
16:00 +15°C° 0 mm 8 mps 760 mmHg 60%
17:00 +14°C° 0 mm 7 mps 760 mmHg 63%
18:00 +13°C° 0 mm 6 mps 760 mmHg 66%
19:00 +13°C° 0 mm 5 mps 760 mmHg 68%
20:00 +13°C° 0 mm 5 mps 760 mmHg 70%
21:00 +13°C° 0 mm 4 mps 759 mmHg 71%
22:00 +13°C° 0 mm 4 mps 759 mmHg 72%
23:00 +13°C° 0 mm 4 mps 759 mmHg 72%

Day after tomorrow, 22 January, Friday

Time Temperature Precipitation Wind Pressure Humidity
00:00 +13°C° 0 mm 5 mps 759 mmHg 73%
01:00 +13°C° 0 mm 5 mps 759 mmHg 72%
02:00 +13°C° 0 mm 5 mps 758 mmHg 71%
03:00 +13°C° 0 mm 5 mps 757 mmHg 70%
04:00 +13°C° 0 mm 5 mps 757 mmHg 69%
05:00 +13°C° 0 mm 6 mps 756 mmHg 69%
06:00 +14°C° 0 mm 6 mps 755 mmHg 69%
07:00 +14°C° 0 mm 7 mps 755 mmHg 67%
08:00 +15°C° 0 mm 8 mps 754 mmHg 66%
09:00 +16°C° 0 mm 9 mps 754 mmHg 64%
10:00 +15°C° 0.2 mm 12 mps 754 mmHg 59%
11:00 +15°C° 0.2 mm 14 mps 754 mmHg 53%
12:00 +15°C° 0.2 mm 17 mps 754 mmHg 47%
13:00 +15°C° 0 mm 17 mps 755 mmHg 46%
14:00 +15°C° 0 mm 17 mps 755 mmHg 45%
15:00 +14°C° 0 mm 17 mps 755 mmHg 44%
16:00 +13°C° 0 mm 15 mps 756 mmHg 47%
17:00 +12°C° 0 mm 13 mps 756 mmHg 49%
18:00 +11°C° 0 mm 11 mps 757 mmHg 52%
19:00 +9°C° 0 mm 10 mps 757 mmHg 54%
20:00 +10°C° 0 mm 9 mps 758 mmHg 57%
21:00 +9°C° 0 mm 8 mps 758 mmHg 60%
22:00 +9°C° 0 mm 7 mps 759 mmHg 61%
23:00 +9°C° 0 mm 7 mps 759 mmHg 63%

23 January, Saturday

Time Temperature Precipitation Wind Pressure Humidity
00:00 +8°C° 0 mm 6 mps 760 mmHg 65%
01:00 +8°C° 0 mm 7 mps 760 mmHg 66%
02:00 +8°C° 0 mm 7 mps 760 mmHg 68%
03:00 +8°C° 0 mm 7 mps 759 mmHg 69%
04:00 +8°C° 0 mm 7 mps 760 mmHg 67%
05:00 +7°C° 0 mm 8 mps 760 mmHg 66%
06:00 +7°C° 0 mm 8 mps 760 mmHg 64%
07:00 +9°C° 0 mm 8 mps 760 mmHg 63%
08:00 +9°C° 0 mm 8 mps 760 mmHg 62%
09:00 +10°C° 0 mm 8 mps 760 mmHg 61%
10:00 +11°C° 0 mm 9 mps 760 mmHg 58%
11:00 +12°C° 0 mm 10 mps 760 mmHg 56%
12:00 +13°C° 0 mm 10 mps 760 mmHg 53%
13:00 +13°C° 0 mm 10 mps 759 mmHg 53%
14:00 +13°C° 0 mm 9 mps 759 mmHg 53%
15:00 +13°C° 0 mm 9 mps 758 mmHg 53%
16:00 +12°C° 0 mm 8 mps 758 mmHg 56%
17:00 +11°C° 0 mm 7 mps 758 mmHg 59%
18:00 +10°C° 0 mm 6 mps 758 mmHg 63%
19:00 +10°C° 0 mm 6 mps 757 mmHg 64%
20:00 +10°C° 0 mm 6 mps 757 mmHg 65%
21:00 +10°C° 0 mm 6 mps 756 mmHg 65%
22:00 +10°C° 0 mm 6 mps 755 mmHg 65%
23:00 +11°C° 0 mm 7 mps 755 mmHg 66%

24 January, Sunday

Time Temperature Precipitation Wind Pressure Humidity
00:00 +11°C° 0 mm 7 mps 754 mmHg 66%
01:00 +12°C° 0 mm 8 mps 753 mmHg 66%
02:00 +12°C° 0 mm 8 mps 752 mmHg 67%
03:00 +13°C° 0 mm 9 mps 751 mmHg 67%
04:00 +13°C° 0.1 mm 9 mps 752 mmHg 64%
05:00 +12°C° 0.1 mm 10 mps 752 mmHg 62%
06:00 +12°C° 0.1 mm 10 mps 753 mmHg 59%
07:00 +12°C° 0 mm 11 mps 754 mmHg 58%
08:00 +12°C° 0 mm 12 mps 755 mmHg 57%
09:00 +12°C° 0 mm 13 mps 756 mmHg 55%
10:00 +13°C° 0 mm 12 mps 757 mmHg 51%
11:00 +14°C° 0 mm 10 mps 757 mmHg 46%
12:00 +16°C° 0 mm 8 mps 757 mmHg 42%
13:00 +16°C° 0 mm 8 mps 757 mmHg 41%
14:00 +16°C° 0 mm 7 mps 757 mmHg 40%
15:00 +16°C° 0 mm 6 mps 757 mmHg 40%
16:00 +15°C° 0 mm 6 mps 758 mmHg 44%
17:00 +13°C° 0 mm 6 mps 759 mmHg 49%
18:00 +11°C° 0 mm 6 mps 759 mmHg 54%
19:00 +10°C° 0 mm 6 mps 760 mmHg 56%
20:00 +10°C° 0 mm 6 mps 760 mmHg 58%
21:00 +9°C° 0 mm 7 mps 761 mmHg 60%
22:00 +9°C° 0 mm 7 mps 761 mmHg 60%
23:00 +9°C° 0 mm 7 mps 762 mmHg 59%

25 January, Monday

Time Temperature Precipitation Wind Pressure Humidity
00:00 +8°C° 0 mm 7 mps 762 mmHg 59%
01:00 +8°C° 0 mm 7 mps 762 mmHg 60%
02:00 +8°C° 0 mm 7 mps 762 mmHg 61%
03:00 +8°C° 0 mm 7 mps 762 mmHg 62%
04:00 +8°C° 0 mm 7 mps 762 mmHg 65%
05:00 +8°C° 0 mm 7 mps 763 mmHg 67%
06:00 +8°C° 0 mm 7 mps 763 mmHg 70%
07:00 +8°C° 0 mm 6 mps 764 mmHg 67%
08:00 +9°C° 0 mm 6 mps 764 mmHg 65%
09:00 +10°C° 0 mm 5 mps 765 mmHg 62%
10:00 +12°C° 0 mm 5 mps 765 mmHg 57%
11:00 +14°C° 0 mm 5 mps 765 mmHg 51%
12:00 +15°C° 0 mm 5 mps 765 mmHg 46%
13:00 +15°C° 0 mm 4 mps 765 mmHg 44%
14:00 +17°C° 0 mm 3 mps 765 mmHg 42%
15:00 +17°C° 0 mm 2 mps 765 mmHg 41%
16:00 +16°C° 0 mm 3 mps 765 mmHg 47%
17:00 +13°C° 0 mm 3 mps 766 mmHg 54%
18:00 +11°C° 0 mm 3 mps 766 mmHg 61%
19:00 +11°C° 0 mm 3 mps 766 mmHg 62%
20:00 +10°C° 0 mm 3 mps 767 mmHg 62%
21:00 +10°C° 0 mm 3 mps 767 mmHg 63%
22:00 +10°C° 0 mm 3 mps 767 mmHg 64%
23:00 +9°C° 0 mm 3 mps 767 mmHg 65%
Show more